Weather History for Branson, MO

Change the Weather History Date:

Sunday, March 9, 2014

  Actual Average (KHRO) Record (KHRO)
Temperature  
Mean Temperature 44 °F 47 °F  
Max Temperature 57 °F 57 °F 86 °F (1911)
Min Temperature 32 °F 36 °F 8 °F (1932)
Degree Days  
Heating Degree Days 20 18  
Month to date heating degree days 177  
Since 1 July heating degree days 3349  
Cooling Degree Days 0 0  
Month to date cooling degree days 0  
Year to date cooling degree days 0  
Moisture  
Dew Point 35 °F    
Average Humidity 86    
Maximum Humidity 100    
Minimum Humidity 51    
Precipitation  
Precipitation 0.00 in 0.11 in 4.47 in (1967)
Month to date precipitation 0.99  
Year to date precipitation 6.19  
Snow  
Snow 0.00 in 0.10 in 6.00 in (1964)
Month to date snowfall 0.9  
Since 1 July snowfall 10.1  
Snow Depth -    
Sea Level Pressure  
Sea Level Pressure 30.23 in    
Wind  
Wind Speed 3 mph (WSW)    
Max Wind Speed 12 mph    
Max Gust Speed -    
Visibility 5 miles    
Events      
T = Trace of Precipitation, MM = Missing Value Source: NWS Daily Summary

Daily Weather History Graph

Daily Weather History Graph

Search for Another Location

Airport:

Trip Planner

Search our weather history database for the weather conditions in past years. The results will help you decide how hot, cold, wet, or windy it might be!

Date:

Astronomy

Mar. 09, 2014 Rise Set
Actual Time 7:32 AM CDT 7:14 PM CDT
Civil Twilight 7:06 AM CDT 7:40 PM CDT
Nautical Twilight 6:36 AM CDT 8:10 PM CDT
Astronomical Twilight 6:06 AM CDT 8:40 PM CDT
Moon 1:14 PM CDT (3/9) 3:51 AM CDT (3/9)
Length of Visible Light 12h 34m
Length of Day
11h 42m
First Quarter, 61% of the Moon is Illuminated
Mar 9
First Quarter
Mar 16
Full
Mar 23
Last Quarter
Mar 30
New
Apr 7
First Quarter

Hourly Weather History & Observations

Time (CDT) Temp. Windchill Dew Point Humidity Pressure Visibility Wind Dir Wind Speed Gust Speed Precip Events Conditions
12:15 AM 33.8 °F - 32.0 °F 93% 30.29 in 1.8 mi Calm Calm - N/A   Overcast
12:35 AM 33.8 °F - 32.0 °F 93% 30.29 in 1.8 mi Calm Calm - N/A   Overcast
12:55 AM 33.8 °F - 32.0 °F 93% 30.29 in 2.5 mi Calm Calm - N/A   Overcast
1:15 AM 33.8 °F 30.8 °F 32.0 °F 93% 30.29 in 2.0 mi NNW 3.5 mph - N/A   Overcast
1:35 AM 33.8 °F 30.8 °F 32.0 °F 93% 30.29 in 1.8 mi North 3.5 mph - N/A   Overcast
1:55 AM 33.8 °F 30.8 °F 32.0 °F 93% 30.29 in 1.8 mi North 3.5 mph - N/A   Overcast
3:15 AM 33.8 °F 30.8 °F 32.0 °F 93% 30.30 in 1.8 mi North 3.5 mph - N/A   Overcast
3:35 AM 33.8 °F 30.8 °F 32.0 °F 93% 30.29 in 1.8 mi North 3.5 mph - N/A   Overcast
3:55 AM 33.8 °F 30.8 °F 32.0 °F 93% 30.29 in 1.5 mi North 3.5 mph - N/A   Overcast
4:15 AM 33.8 °F 30.8 °F 32.0 °F 93% 30.29 in 1.5 mi North 3.5 mph - N/A   Overcast
4:35 AM 33.8 °F 30.8 °F 32.0 °F 93% 30.29 in 1.8 mi North 3.5 mph - N/A   Overcast
4:55 AM 32.0 °F - 32.0 °F 100% 30.28 in 1.8 mi Calm Calm - N/A   Overcast
5:15 AM 32.0 °F - 32.0 °F 100% 30.29 in 1.5 mi Calm Calm - N/A   Overcast
5:35 AM 32.0 °F - 32.0 °F 100% 30.29 in 1.5 mi Calm Calm - N/A   Overcast
5:55 AM 32.0 °F - 32.0 °F 100% 30.30 in 1.5 mi Calm Calm - N/A   Overcast
6:15 AM 32.0 °F - 32.0 °F 100% 30.30 in 1.8 mi Calm Calm - N/A   Overcast
6:35 AM 32.0 °F - 32.0 °F 100% 30.30 in 2.0 mi Calm Calm - N/A   Overcast
6:45 AM 32.0 °F - 32.0 °F 100% 30.30 in 2.0 mi Calm Calm - N/A   Overcast
6:55 AM 32.0 °F - 32.0 °F 100% 30.30 in 1.8 mi Calm Calm - N/A   Overcast
7:15 AM 32.0 °F - 32.0 °F 100% 30.30 in 2.0 mi Calm Calm - N/A   Overcast
7:35 AM 32.0 °F - 32.0 °F 100% 30.31 in 1.8 mi Calm Calm - N/A   Overcast
7:45 AM 32.0 °F - 32.0 °F 100% 30.31 in 2.0 mi Calm Calm - N/A   Overcast
8:45 AM 32.0 °F - 32.0 °F 100% - 2.0 mi Calm Calm - N/A   Overcast
9:45 AM 33.8 °F 28.6 °F 32.0 °F 93% 30.32 in 2.0 mi SSE 5.8 mph - N/A   Overcast
10:45 AM 35.6 °F 32.8 °F 32.0 °F 87% 30.32 in 1.8 mi SSE 3.5 mph - N/A   Overcast
11:45 AM 39.2 °F - 33.8 °F 81% 30.30 in 3.0 mi Calm Calm - N/A   Mostly Cloudy
12:45 PM 44.6 °F - 37.4 °F 76% 30.29 in 7.0 mi Calm Calm - N/A   Scattered Clouds
1:55 PM 50.0 °F - 37.4 °F 62% 30.26 in 10.0 mi Calm Calm - N/A   Scattered Clouds
2:47 PM 51.8 °F - 37.4 °F 58% 30.23 in 10.0 mi West 4.6 mph - N/A   Scattered Clouds
3:45 PM 55.4 °F - 39.2 °F 54% 30.18 in 10.0 mi SW 4.6 mph - N/A   Clear
4:45 PM 55.4 °F - 39.2 °F 54% 30.14 in 10.0 mi WSW 6.9 mph - N/A   Clear
5:46 PM 57.2 °F - 39.2 °F 51% 30.14 in 10.0 mi SW 6.9 mph - N/A   Scattered Clouds
6:56 PM 53.6 °F - 41.0 °F 62% 30.12 in 10.0 mi SSW 11.5 mph - N/A   Clear
7:50 PM 50.0 °F - 41.0 °F 71% 30.12 in 10.0 mi SW 5.8 mph - N/A   Clear
8:46 PM 48.2 °F - 41.0 °F 76% 30.14 in 10.0 mi SSW 5.8 mph - N/A   Partly Cloudy
9:15 PM 48.2 °F - 41.0 °F 76% 30.12 in 10.0 mi SW 5.8 mph - N/A   Clear
9:35 PM 46.4 °F 42.9 °F 41.0 °F 81% 30.12 in 10.0 mi SW 6.9 mph - N/A   Clear
9:55 PM 46.4 °F 42.9 °F 41.0 °F 81% 30.12 in 10.0 mi SW 6.9 mph - N/A   Clear
10:15 PM 46.4 °F 42.9 °F 41.0 °F 81% 30.12 in 10.0 mi SW 6.9 mph - N/A   Clear
10:35 PM 46.4 °F 42.4 °F 41.0 °F 81% 30.13 in 10.0 mi SW 8.1 mph - N/A   Clear
10:55 PM 44.6 °F 40.7 °F 39.2 °F 81% 30.13 in 10.0 mi SW 6.9 mph - N/A   Clear
11:15 PM 44.6 °F 40.2 °F 39.2 °F 81% 30.12 in 10.0 mi SSW 8.1 mph - N/A   Clear
11:35 PM 42.8 °F 39.3 °F 39.2 °F 87% 30.12 in 10.0 mi SW 5.8 mph - N/A   Clear
11:55 PM 42.8 °F 38.0 °F 39.2 °F 87% 30.11 in 10.0 mi SW 8.1 mph - N/A   Clear
12:15 AM 42.8 °F 37.5 °F 39.2 °F 87% 30.11 in 10.0 mi SW 9.2 mph - N/A   Clear
12:35 AM 42.8 °F 38.6 °F 39.2 °F 87% 30.11 in 10.0 mi SW 6.9 mph - N/A   Clear
12:55 AM 41.0 °F 36.4 °F 39.2 °F 93% 30.10 in 10.0 mi WSW 6.9 mph - N/A   Clear